sat.trackr.live / text

‹ back to catalog

STARLINK-5685

NORAD 55477 · 2023-015AE

PAYLOAD ACTIVE UNKNOWN

§ Identity

Operator
Country
US
Launch date
2023-02-02
Launch site
AFETR
Launch vehicle
Mass (kg)
RCS (m²)

Purposes: comms

External: N2YO · Heavens-Above · Gunter

§ Orbital elements

Epoch: 2026-09-20T09:14:35.206944Z

Period
94.27 min
Inclination
43.0021°
Eccentricity
0.0001381
Mean motion
15.27577540 rev/d
Perigee alt
482.1 km
Apogee alt
484.0 km
Semi-major
6,861.2 km
B*
2.0478e-5
RAAN
301.6828°
Arg perigee
267.4343°
Mean anomaly
92.6350°
Rev number
20,058

§ Raw data

STARLINK-56851 55477U 23015AE  26263.38512971  .00000301  00000+0  20478-4 0  99922 55477  43.0021 301.6828 0001381 267.4343  92.6350 15.27577540200583

JSON: /api/v1/satellites/55477 · /tle

For live sub-satellite position, see the globe view (requires WebGL).

§ Visibility from observer

Set your observer location to see the next 7 days of passes ≥ 10°. The values pass through the URL so the page stays shareable.

No JS? Fill the form by hand. The geolocation button needs JavaScript.